Terug naar catalogus

ARIANE 44LP+ R/B

ActiefHEO
NORAD 23538·ROCKET BODY·🇫🇷 France

Gelanceerd Mar 28, 1995 vanaf Guiana Space Centre

Loading…

Volgende Passages (komende 24 uur)

TLE

VersSource: Space-Track

Epoch: Sep 14, 2026, 05:06 UTC

1 23538U 95016C   26257.21267128  .00003600  00000-0  11868-2 0  9998
2 23538   6.3661 109.9202 6023157 151.7157 261.5270  3.97977914331342

Volg ARIANE 44LP+ R/B in realtime met AllMySat

Download on the App Store